User: anonymous   Login
Location: Trondheim
(63.4170°N, 10.4170°E)
Time: 23:43:52
(UTC+01:00)
Language:

Iridium 82 - Orbit

View from above orbital plane
View from above orbital plane
View from above satellite
View from above satellite

Ground track
Ground track

The orbit data is extracted from the following two-line orbital elements,

1 25467U 98051A   14353.55505267  .00000405  00000-0  13743-3 0  1934
2 25467 086.3965 042.7215 0002174 104.6002 255.5435 14.34221602856093
Epoch (UTC): 19 December 2014 13:19:16
Eccentricity: 0.0002174
inclination: 86.3965°
perigee height: 776 km
apogee height: 779 km
right ascension of ascending node: 42.7215°
argument of perigee: 104.6002°
revolutions per day: 14.34221602
mean anomaly at epoch: 255.5435°
orbit number at epoch: 85609

The dashed part of the orbit path shows where the satellite is in the earth's shadow,  

DLR